Year,Month,Day,Hour,Minute,Value (Times are PST for temperature in C)
2016,08,19,00,00,21.40
2016,08,19,00,01,21.40
2016,08,19,00,02,21.40
2016,08,19,00,03,21.40
2016,08,19,00,04,21.40
2016,08,19,00,05,21.40
2016,08,19,00,06,21.30
2016,08,19,00,07,21.30
2016,08,19,00,08,21.30
2016,08,19,00,09,21.30
2016,08,19,00,10,21.30
2016,08,19,00,11,21.30
2016,08,19,00,12,21.30
2016,08,19,00,13,21.20
2016,08,19,00,14,21.20
2016,08,19,00,15,21.20
2016,08,19,00,16,21.20
2016,08,19,00,17,21.20
2016,08,19,00,18,21.20
2016,08,19,00,19,21.10
2016,08,19,00,20,21.10
2016,08,19,00,21,21.10
2016,08,19,00,22,21.10
2016,08,19,00,23,21.10
2016,08,19,00,24,21.10
2016,08,19,00,25,21.10
2016,08,19,00,26,21.00
2016,08,19,00,27,21.00
2016,08,19,00,28,21.00
2016,08,19,00,29,21.00
2016,08,19,00,30,21.00
2016,08,19,00,31,20.90
2016,08,19,00,32,20.90
2016,08,19,00,33,20.90
2016,08,19,00,34,20.90
2016,08,19,00,35,20.90
2016,08,19,00,36,20.90
2016,08,19,00,37,20.80
2016,08,19,00,38,20.80
2016,08,19,00,39,20.80
2016,08,19,00,40,20.80
2016,08,19,00,41,20.70
2016,08,19,00,42,20.70
2016,08,19,00,43,20.70
2016,08,19,00,44,20.60
2016,08,19,00,45,20.60
2016,08,19,00,46,20.60
2016,08,19,00,47,20.60
2016,08,19,00,48,20.50
2016,08,19,00,49,20.50
2016,08,19,00,51,20.50
2016,08,19,00,52,20.40
2016,08,19,00,53,20.40
2016,08,19,00,54,20.40
2016,08,19,00,55,20.40
2016,08,19,00,56,20.40
2016,08,19,00,57,20.30
2016,08,19,00,58,20.30
2016,08,19,00,59,20.30
2016,08,19,01,00,20.20
2016,08,19,01,01,20.20
2016,08,19,01,02,20.20
2016,08,19,01,03,20.10
2016,08,19,01,04,20.10
2016,08,19,01,05,20.10
2016,08,19,01,06,20.00
2016,08,19,01,07,19.90
2016,08,19,01,08,19.90
2016,08,19,01,09,19.90
2016,08,19,01,10,19.80
2016,08,19,01,11,19.80
2016,08,19,01,12,19.80
2016,08,19,01,13,19.70
2016,08,19,01,14,19.70
2016,08,19,01,15,19.70
2016,08,19,01,16,19.70
2016,08,19,01,17,19.70
2016,08,19,01,18,19.60
2016,08,19,01,19,19.60
2016,08,19,01,20,19.60
2016,08,19,01,21,19.60
2016,08,19,01,22,19.50
2016,08,19,01,23,19.50
2016,08,19,01,24,19.50
2016,08,19,01,25,19.50
2016,08,19,01,26,19.40
2016,08,19,01,27,19.40
2016,08,19,01,28,19.40
2016,08,19,01,29,19.40
2016,08,19,01,30,19.40
2016,08,19,01,31,19.40
2016,08,19,01,32,19.40
2016,08,19,01,33,19.40
2016,08,19,01,34,19.40
2016,08,19,01,35,19.40
2016,08,19,01,36,19.40
2016,08,19,01,37,19.40
2016,08,19,01,38,19.40
2016,08,19,01,39,19.40
2016,08,19,01,40,19.40
2016,08,19,01,41,19.40
2016,08,19,01,42,19.30
2016,08,19,01,43,19.30
2016,08,19,01,44,19.30
2016,08,19,01,45,19.30
2016,08,19,01,46,19.30
2016,08,19,01,47,19.30
2016,08,19,01,48,19.30
2016,08,19,01,49,19.30
2016,08,19,01,50,19.30
2016,08,19,01,51,19.30
2016,08,19,01,52,19.20
2016,08,19,01,53,19.20
2016,08,19,01,54,19.20
2016,08,19,01,55,19.20
2016,08,19,01,56,19.20
2016,08,19,01,57,19.20
2016,08,19,01,58,19.20
2016,08,19,01,59,19.20
2016,08,19,02,00,19.10
2016,08,19,02,01,19.10
2016,08,19,02,02,19.00
2016,08,19,02,03,18.90
2016,08,19,02,04,18.90
2016,08,19,02,05,18.90
2016,08,19,02,06,18.80
2016,08,19,02,07,18.80
2016,08,19,02,10,18.80
2016,08,19,02,12,18.80
2016,08,19,02,13,18.80
2016,08,19,02,14,18.80
2016,08,19,02,15,18.80
2016,08,19,02,16,18.70
2016,08,19,02,17,18.80
2016,08,19,02,18,18.70
2016,08,19,02,19,18.70
2016,08,19,02,20,18.70
2016,08,19,02,21,18.70
2016,08,19,02,22,18.70
2016,08,19,02,23,18.60
2016,08,19,02,24,18.60
2016,08,19,02,25,18.60
2016,08,19,02,26,18.50
2016,08,19,02,27,18.50
2016,08,19,02,28,18.40
2016,08,19,02,29,18.40
2016,08,19,02,30,18.40
2016,08,19,02,31,18.40
2016,08,19,02,32,18.40
2016,08,19,02,33,18.30
2016,08,19,02,34,18.40
2016,08,19,02,35,18.30
2016,08,19,02,36,18.30
2016,08,19,02,37,18.30
2016,08,19,02,38,18.30
2016,08,19,02,39,18.30
2016,08,19,02,40,18.40
2016,08,19,02,41,18.30
2016,08,19,02,42,18.30
2016,08,19,02,43,18.30
2016,08,19,02,44,18.30
2016,08,19,02,45,18.30
2016,08,19,02,46,18.30
2016,08,19,02,47,18.20
2016,08,19,02,48,18.20
2016,08,19,02,49,18.20
2016,08,19,02,50,18.20
2016,08,19,02,51,18.20
2016,08,19,02,52,18.20
2016,08,19,02,53,18.20
2016,08,19,02,54,18.20
2016,08,19,02,55,18.20
2016,08,19,02,56,18.20
2016,08,19,02,57,18.20
2016,08,19,02,58,18.10
2016,08,19,02,59,18.20
2016,08,19,03,00,18.20
2016,08,19,03,01,18.20
2016,08,19,03,02,18.20
2016,08,19,03,03,18.10
2016,08,19,03,04,18.10
2016,08,19,03,05,18.10
2016,08,19,03,06,18.10
2016,08,19,03,07,18.10
2016,08,19,03,08,18.10
2016,08,19,03,09,18.10
2016,08,19,03,10,18.10
2016,08,19,03,11,18.00
2016,08,19,03,12,17.90
2016,08,19,03,13,17.90
2016,08,19,03,14,17.90
2016,08,19,03,15,17.80
2016,08,19,03,16,17.80
2016,08,19,03,17,17.70
2016,08,19,03,18,17.70
2016,08,19,03,19,17.70
2016,08,19,03,20,17.60
2016,08,19,03,21,17.60
2016,08,19,03,22,17.60
2016,08,19,03,23,17.50
2016,08,19,03,24,17.50
2016,08,19,03,25,17.50
2016,08,19,03,26,17.40
2016,08,19,03,27,17.40
2016,08,19,03,28,17.40
2016,08,19,03,29,17.40
2016,08,19,03,30,17.40
2016,08,19,03,31,17.40
2016,08,19,03,32,17.40
2016,08,19,03,33,17.40
2016,08,19,03,34,17.40
2016,08,19,03,35,17.40
2016,08,19,03,36,17.40
2016,08,19,03,37,17.40
2016,08,19,03,38,17.40
2016,08,19,03,39,17.40
2016,08,19,03,40,17.40
2016,08,19,03,41,17.40
2016,08,19,03,42,17.40
2016,08,19,03,43,17.40
2016,08,19,03,44,17.40
2016,08,19,03,45,17.40
2016,08,19,03,46,17.40
2016,08,19,03,47,17.40
2016,08,19,03,48,17.40
2016,08,19,03,49,17.40
2016,08,19,03,50,17.40
2016,08,19,03,51,17.40
2016,08,19,03,52,17.30
2016,08,19,03,53,17.30
2016,08,19,03,54,17.30
2016,08,19,03,55,17.30
2016,08,19,03,56,17.30
2016,08,19,03,57,17.30
2016,08,19,03,58,17.20
2016,08,19,04,00,17.20
2016,08,19,04,01,17.20
2016,08,19,04,02,17.20
2016,08,19,04,03,17.20
2016,08,19,04,04,17.20
2016,08,19,04,05,17.20
2016,08,19,04,06,17.10
2016,08,19,04,07,17.10
2016,08,19,04,08,17.10
2016,08,19,04,09,17.10
2016,08,19,04,10,17.10
2016,08,19,04,11,17.10
2016,08,19,04,12,17.10
2016,08,19,04,13,17.10
2016,08,19,04,14,17.10
2016,08,19,04,15,17.10
2016,08,19,04,16,17.10
2016,08,19,04,17,17.10
2016,08,19,04,18,17.20
2016,08,19,04,19,17.10
2016,08,19,04,20,17.20
2016,08,19,04,21,17.20
2016,08,19,04,22,17.20
2016,08,19,04,23,17.20
2016,08,19,04,24,17.20
2016,08,19,04,25,17.20
2016,08,19,04,26,17.20
2016,08,19,04,27,17.20
2016,08,19,04,28,17.20
2016,08,19,04,29,17.20
2016,08,19,04,30,17.20
2016,08,19,04,31,17.20
2016,08,19,04,32,17.20
2016,08,19,04,33,17.20
2016,08,19,04,34,17.20
2016,08,19,04,35,17.20
2016,08,19,04,36,17.20
2016,08,19,04,37,17.20
2016,08,19,04,38,17.20
2016,08,19,04,39,17.20
2016,08,19,04,40,17.20
2016,08,19,04,41,17.20
2016,08,19,04,42,17.20
2016,08,19,04,43,17.10
2016,08,19,04,44,17.10
2016,08,19,04,45,17.10
2016,08,19,04,46,17.10
2016,08,19,04,47,17.10
2016,08,19,04,48,17.00
2016,08,19,04,49,17.00
2016,08,19,04,50,17.00
2016,08,19,04,51,16.90
2016,08,19,04,52,16.90
2016,08,19,04,53,16.90
2016,08,19,04,54,16.90
2016,08,19,04,55,16.90
2016,08,19,04,56,16.90
2016,08,19,04,57,16.90
2016,08,19,04,58,16.90
2016,08,19,04,59,16.80
2016,08,19,05,00,16.80
2016,08,19,05,01,16.80
2016,08,19,05,02,16.80
2016,08,19,05,03,16.80
2016,08,19,05,04,16.80
2016,08,19,05,05,16.80
2016,08,19,05,06,16.80
2016,08,19,05,07,16.80
2016,08,19,05,08,16.80
2016,08,19,05,09,16.70
2016,08,19,05,10,16.80
2016,08,19,05,11,16.70
2016,08,19,05,12,16.70
2016,08,19,05,13,16.70
2016,08,19,05,14,16.70
2016,08,19,05,15,16.70
2016,08,19,05,16,16.70
2016,08,19,05,17,16.70
2016,08,19,05,18,16.70
2016,08,19,05,19,16.70
2016,08,19,05,20,16.70
2016,08,19,05,21,16.60
2016,08,19,05,22,16.60
2016,08,19,05,23,16.60
2016,08,19,05,24,16.60
2016,08,19,05,25,16.60
2016,08,19,05,26,16.60
2016,08,19,05,27,16.50
2016,08,19,05,28,16.50
2016,08,19,05,29,16.50
2016,08,19,05,30,16.40
2016,08,19,05,31,16.40
2016,08,19,05,32,16.40
2016,08,19,05,33,16.40
2016,08,19,05,34,16.50
2016,08,19,05,35,16.50
2016,08,19,05,36,16.50
2016,08,19,05,37,16.50
2016,08,19,05,38,16.50
2016,08,19,05,39,16.50
2016,08,19,05,40,16.60
2016,08,19,05,41,16.60
2016,08,19,05,43,16.60
2016,08,19,05,44,16.60
2016,08,19,05,45,16.60
2016,08,19,05,46,16.60
2016,08,19,05,47,16.60
2016,08,19,05,48,16.60
2016,08,19,05,49,16.60
2016,08,19,05,50,16.60
2016,08,19,05,51,16.60
2016,08,19,05,52,16.60
2016,08,19,05,53,16.60
2016,08,19,05,54,16.60
2016,08,19,05,55,16.50
2016,08,19,05,56,16.50
2016,08,19,05,57,16.50
2016,08,19,05,58,16.50
2016,08,19,05,59,16.50
2016,08,19,06,00,16.40
2016,08,19,06,01,16.40
2016,08,19,06,02,16.40
2016,08,19,06,03,16.40
2016,08,19,06,04,16.40
2016,08,19,06,05,16.40
2016,08,19,06,06,16.40
2016,08,19,06,07,16.40
2016,08,19,06,08,16.40
2016,08,19,06,09,16.30
2016,08,19,06,10,16.30
2016,08,19,06,11,16.30
2016,08,19,06,12,16.30
2016,08,19,06,13,16.30
2016,08,19,06,14,16.30
2016,08,19,06,15,16.20
2016,08,19,06,16,16.20
2016,08,19,06,17,16.20
2016,08,19,06,18,16.20
2016,08,19,06,19,16.20
2016,08,19,06,20,16.20
2016,08,19,06,21,16.20
2016,08,19,06,22,16.20
2016,08,19,06,23,16.20
2016,08,19,06,24,16.10
2016,08,19,06,25,16.10
2016,08,19,06,26,16.10
2016,08,19,06,27,16.10
2016,08,19,06,28,16.10
2016,08,19,06,29,16.00
2016,08,19,06,30,16.00
2016,08,19,06,31,16.00
2016,08,19,06,32,15.90
2016,08,19,06,33,15.90
2016,08,19,06,34,15.90
2016,08,19,06,35,15.90
2016,08,19,06,36,15.90
2016,08,19,06,37,15.90
2016,08,19,06,38,15.90
2016,08,19,06,39,15.90
2016,08,19,06,40,15.90
2016,08,19,06,41,15.90
2016,08,19,06,42,15.90
2016,08,19,06,43,15.90
2016,08,19,06,44,15.90
2016,08,19,06,45,15.90
2016,08,19,06,46,15.90
2016,08,19,06,47,15.90
2016,08,19,06,48,15.90
2016,08,19,06,49,15.90
2016,08,19,06,50,15.90
2016,08,19,06,51,16.00
2016,08,19,06,52,16.00
2016,08,19,06,53,16.00
2016,08,19,06,54,16.10
2016,08,19,06,55,16.10
2016,08,19,06,56,16.10
2016,08,19,06,57,16.10
2016,08,19,06,58,16.10
2016,08,19,06,59,16.10
2016,08,19,07,00,16.10
2016,08,19,07,01,16.10
2016,08,19,07,02,16.20
2016,08,19,07,03,16.20
2016,08,19,07,04,16.20
2016,08,19,07,05,16.20
2016,08,19,07,06,16.20
2016,08,19,07,07,16.20
2016,08,19,07,08,16.20
2016,08,19,07,09,16.20
2016,08,19,07,10,16.20
2016,08,19,07,11,16.30
2016,08,19,07,12,16.30
2016,08,19,07,13,16.30
2016,08,19,07,14,16.30
2016,08,19,07,15,16.30
2016,08,19,07,16,16.30
2016,08,19,07,17,16.30
2016,08,19,07,18,16.30
2016,08,19,07,19,16.30
2016,08,19,07,20,16.30
2016,08,19,07,21,16.30
2016,08,19,07,22,16.30
2016,08,19,07,23,16.30
2016,08,19,07,24,16.30
2016,08,19,07,25,16.40
2016,08,19,07,26,16.40
2016,08,19,07,27,16.50
2016,08,19,07,28,16.60
2016,08,19,07,29,16.60
2016,08,19,07,30,16.70
2016,08,19,07,31,16.80
2016,08,19,07,32,16.90
2016,08,19,07,33,16.90
2016,08,19,07,34,17.10
2016,08,19,07,35,17.20
2016,08,19,07,36,17.30
2016,08,19,07,37,17.30
2016,08,19,07,38,17.40
2016,08,19,07,39,17.60
2016,08,19,07,40,17.70
2016,08,19,07,41,17.80
2016,08,19,07,42,17.90
2016,08,19,07,43,17.90
2016,08,19,07,44,18.10
2016,08,19,07,45,18.20
2016,08,19,07,46,18.20
2016,08,19,07,47,18.30
2016,08,19,07,48,18.30
2016,08,19,07,49,18.30
2016,08,19,07,50,18.40
2016,08,19,07,51,18.40
2016,08,19,07,52,18.40
2016,08,19,07,53,18.50
2016,08,19,07,54,18.60
2016,08,19,07,55,18.70
2016,08,19,07,56,18.70
2016,08,19,07,57,18.80
2016,08,19,07,58,18.90
2016,08,19,07,59,19.00
2016,08,19,08,00,19.10
2016,08,19,08,01,19.20
2016,08,19,08,02,19.30
2016,08,19,08,03,19.30
2016,08,19,08,04,19.40
2016,08,19,08,05,19.50
2016,08,19,08,06,19.60
2016,08,19,08,07,19.70
2016,08,19,08,08,19.70
2016,08,19,08,09,19.80
2016,08,19,08,10,19.80
2016,08,19,08,11,19.90
2016,08,19,08,12,19.90
2016,08,19,08,13,19.90
2016,08,19,08,14,19.90
2016,08,19,08,15,19.90
2016,08,19,08,16,19.90
2016,08,19,08,17,20.00
2016,08,19,08,18,20.00
2016,08,19,08,19,20.00
2016,08,19,08,20,20.10
2016,08,19,08,21,20.10
2016,08,19,08,22,20.10
2016,08,19,08,23,20.10
2016,08,19,08,24,20.10
2016,08,19,08,25,20.20
2016,08,19,08,26,20.20
2016,08,19,08,27,20.30
2016,08,19,08,28,20.40
2016,08,19,08,29,20.40
2016,08,19,08,30,20.50
2016,08,19,08,31,20.60
2016,08,19,08,32,20.70
2016,08,19,08,33,20.80
2016,08,19,08,34,20.80
2016,08,19,08,35,20.90
2016,08,19,08,36,20.90
2016,08,19,08,37,21.00
2016,08,19,08,38,21.10
2016,08,19,08,39,21.20
2016,08,19,08,40,21.20
2016,08,19,08,41,21.30
2016,08,19,08,42,21.30
2016,08,19,08,43,21.40
2016,08,19,08,44,21.40
2016,08,19,08,45,21.40
2016,08,19,08,46,21.50
2016,08,19,08,47,21.50
2016,08,19,08,48,21.50
2016,08,19,08,49,21.60
2016,08,19,08,50,21.60
2016,08,19,08,51,21.60
2016,08,19,08,52,21.70
2016,08,19,08,53,21.80
2016,08,19,08,54,21.80
2016,08,19,08,55,21.80
2016,08,19,08,56,21.90
2016,08,19,08,57,21.90
2016,08,19,08,58,22.00
2016,08,19,08,59,22.10
2016,08,19,09,00,22.10
2016,08,19,09,01,22.10
2016,08,19,09,02,22.10
2016,08,19,09,03,22.20
2016,08,19,09,04,22.20
2016,08,19,09,05,22.20
2016,08,19,09,06,22.20
2016,08,19,09,07,22.30
2016,08,19,09,08,22.30
2016,08,19,09,09,22.40
2016,08,19,09,10,22.40
2016,08,19,09,11,22.60
2016,08,19,09,12,22.60
2016,08,19,09,13,22.70
2016,08,19,09,15,22.80
2016,08,19,09,16,22.90
2016,08,19,09,17,23.00
2016,08,19,09,18,23.10
2016,08,19,09,19,23.10
2016,08,19,09,20,23.20
2016,08,19,09,21,23.20
2016,08,19,09,22,23.30
2016,08,19,09,23,23.30
2016,08,19,09,24,23.40
2016,08,19,09,25,23.50
2016,08,19,09,26,23.60
2016,08,19,09,27,23.70
2016,08,19,09,28,23.70
2016,08,19,09,29,23.80
2016,08,19,09,30,23.90
2016,08,19,09,31,24.00
2016,08,19,09,32,24.10
2016,08,19,09,33,24.20
2016,08,19,09,34,24.30
2016,08,19,09,35,24.40
2016,08,19,09,36,24.60
2016,08,19,09,37,24.70
2016,08,19,09,38,24.80
2016,08,19,09,39,24.80
2016,08,19,09,40,24.90
2016,08,19,09,41,25.00
2016,08,19,09,42,25.00
2016,08,19,09,43,25.00
2016,08,19,09,44,25.00
2016,08,19,09,45,25.00
2016,08,19,09,46,25.00
2016,08,19,09,47,25.00
2016,08,19,09,48,25.00
2016,08,19,09,49,25.10
2016,08,19,09,50,25.10
2016,08,19,09,51,25.10
2016,08,19,09,52,25.20
2016,08,19,09,53,25.20
2016,08,19,09,54,25.20
2016,08,19,09,55,25.20
2016,08,19,09,56,25.30
2016,08,19,09,57,25.30
2016,08,19,09,58,25.30
2016,08,19,09,59,25.30
2016,08,19,10,00,25.30
2016,08,19,10,01,25.30
2016,08,19,10,02,25.40
2016,08,19,10,03,25.40
2016,08,19,10,04,25.60
2016,08,19,10,05,25.60
2016,08,19,10,06,25.70
2016,08,19,10,07,25.80
2016,08,19,10,08,25.90
2016,08,19,10,09,26.10
2016,08,19,10,10,26.20
2016,08,19,10,11,26.30
2016,08,19,10,12,26.30
2016,08,19,10,13,26.30
2016,08,19,10,14,26.40
2016,08,19,10,15,26.40
2016,08,19,10,16,26.40
2016,08,19,10,17,26.40
2016,08,19,10,18,26.50
2016,08,19,10,19,26.60
2016,08,19,10,20,26.60
2016,08,19,10,21,26.70
2016,08,19,10,22,26.80
2016,08,19,10,23,27.00
2016,08,19,10,24,27.10
2016,08,19,10,25,27.20
2016,08,19,10,26,27.20
2016,08,19,10,27,27.30
2016,08,19,10,28,27.30
2016,08,19,10,29,27.30
2016,08,19,10,30,27.30
2016,08,19,10,31,27.40
2016,08,19,10,32,27.40
2016,08,19,10,33,27.60
2016,08,19,10,34,27.60
2016,08,19,10,35,27.70
2016,08,19,10,36,27.80
2016,08,19,10,37,27.90
2016,08,19,10,38,28.00
2016,08,19,10,39,28.10
2016,08,19,10,40,28.10
2016,08,19,10,41,28.20
2016,08,19,10,42,28.20
2016,08,19,10,43,28.20
2016,08,19,10,44,28.30
2016,08,19,10,45,28.30
2016,08,19,10,46,28.30
2016,08,19,10,47,28.30
2016,08,19,10,48,28.40
2016,08,19,10,49,28.40
2016,08,19,10,50,28.50
2016,08,19,10,51,28.60
2016,08,19,10,52,28.70
2016,08,19,10,53,28.80
2016,08,19,10,54,28.90
2016,08,19,10,55,29.00
2016,08,19,10,56,29.10
2016,08,19,10,57,29.30
2016,08,19,10,58,29.40
2016,08,19,10,59,29.50
2016,08,19,11,00,29.60
2016,08,19,11,01,29.70
2016,08,19,11,02,29.80
2016,08,19,11,03,29.90
2016,08,19,11,04,30.10
2016,08,19,11,05,30.20
2016,08,19,11,06,30.30
2016,08,19,11,07,30.30
2016,08,19,11,08,30.30
2016,08,19,11,09,30.40
2016,08,19,11,10,30.40
2016,08,19,11,11,30.40
2016,08,19,11,12,30.40
2016,08,19,11,13,30.40
2016,08,19,11,14,30.40
2016,08,19,11,15,30.40
2016,08,19,11,16,30.40
2016,08,19,11,17,30.40
2016,08,19,11,18,30.40
2016,08,19,11,19,30.40
2016,08,19,11,20,30.40
2016,08,19,11,21,30.30
2016,08,19,11,22,30.30
2016,08,19,11,23,30.30
2016,08,19,11,24,30.30
2016,08,19,11,25,30.30
2016,08,19,11,26,30.30
2016,08,19,11,27,30.20
2016,08,19,11,28,30.20
2016,08,19,11,29,30.20
2016,08,19,11,30,30.20
2016,08,19,11,31,30.30
2016,08,19,11,32,30.30
2016,08,19,11,33,30.40
2016,08,19,11,34,30.40
2016,08,19,11,35,30.50
2016,08,19,11,36,30.50
2016,08,19,11,37,30.60
2016,08,19,11,38,30.60
2016,08,19,11,39,30.70
2016,08,19,11,40,30.70
2016,08,19,11,41,30.70
2016,08,19,11,42,30.80
2016,08,19,11,43,30.80
2016,08,19,11,44,30.90
2016,08,19,11,45,30.90
2016,08,19,11,46,31.10
2016,08,19,11,47,31.20
2016,08,19,11,48,31.30
2016,08,19,11,49,31.40
2016,08,19,11,50,31.60
2016,08,19,11,51,31.70
2016,08,19,11,52,31.80
2016,08,19,11,53,31.90
2016,08,19,11,54,31.90
2016,08,19,11,55,32.00
2016,08,19,11,56,32.10
2016,08,19,11,57,32.10
2016,08,19,11,58,32.10
2016,08,19,11,59,32.10
2016,08,19,12,00,32.10
2016,08,19,12,01,32.10
2016,08,19,12,02,32.10
2016,08,19,12,03,32.10
2016,08,19,12,04,32.10
2016,08,19,12,05,32.10
2016,08,19,12,06,32.10
2016,08,19,12,07,32.10
2016,08,19,12,08,32.10
2016,08,19,12,09,32.10
2016,08,19,12,10,32.10
2016,08,19,12,11,32.00
2016,08,19,12,12,32.10
2016,08,19,12,13,32.10
2016,08,19,12,14,32.10
2016,08,19,12,15,32.10
2016,08,19,12,16,32.10
2016,08,19,12,17,32.20
2016,08,19,12,18,32.20
2016,08,19,12,19,32.20
2016,08,19,12,20,32.20
2016,08,19,12,21,32.30
2016,08,19,12,22,32.30
2016,08,19,12,23,32.30
2016,08,19,12,24,32.40
2016,08,19,12,25,32.40
2016,08,19,12,26,32.40
2016,08,19,12,27,32.50
2016,08,19,12,28,32.50
2016,08,19,12,29,32.60
2016,08,19,12,30,32.60
2016,08,19,12,31,32.70
2016,08,19,12,32,32.70
2016,08,19,12,33,32.80
2016,08,19,12,34,32.90
2016,08,19,12,35,32.90
2016,08,19,12,36,33.00
2016,08,19,12,37,33.10
2016,08,19,12,38,33.20
2016,08,19,12,39,33.20
2016,08,19,12,40,33.30
2016,08,19,12,41,33.40
2016,08,19,12,42,33.50
2016,08,19,12,43,33.60
2016,08,19,12,44,33.70
2016,08,19,12,45,33.80
2016,08,19,12,46,33.90
2016,08,19,12,47,34.10
2016,08,19,12,48,34.20
2016,08,19,12,49,34.30
2016,08,19,12,50,34.40
2016,08,19,12,51,34.50
2016,08,19,12,52,34.60
2016,08,19,12,53,34.60
2016,08,19,12,54,34.70
2016,08,19,12,55,34.70
2016,08,19,12,56,34.80
2016,08,19,12,57,34.80
2016,08,19,12,58,34.90
2016,08,19,12,59,34.90
2016,08,19,13,00,34.90
2016,08,19,13,01,35.00
2016,08,19,13,02,35.00
2016,08,19,13,03,35.00
2016,08,19,13,04,35.10
2016,08,19,13,05,35.10
2016,08,19,13,06,35.10
2016,08,19,13,08,35.20
2016,08,19,13,09,35.20
2016,08,19,13,10,35.20
2016,08,19,13,11,35.10
2016,08,19,13,12,34.90
2016,08,19,13,13,34.80
2016,08,19,13,14,34.80
2016,08,19,13,15,34.70
2016,08,19,13,16,34.70
2016,08,19,13,17,34.60
2016,08,19,13,18,34.50
2016,08,19,13,19,34.40
2016,08,19,13,20,34.30
2016,08,19,13,21,34.30
2016,08,19,13,22,34.30
2016,08,19,13,23,34.30
2016,08,19,13,24,34.30
2016,08,19,13,25,34.30
2016,08,19,13,26,34.30
2016,08,19,13,27,34.20
2016,08,19,13,28,34.20
2016,08,19,13,29,34.20
2016,08,19,13,30,34.20
2016,08,19,13,31,34.20
2016,08,19,13,32,34.20
2016,08,19,13,33,34.20
2016,08,19,13,34,34.30
2016,08,19,13,35,34.30
2016,08,19,13,36,34.40
2016,08,19,13,37,34.40
2016,08,19,13,38,34.60
2016,08,19,13,39,34.60
2016,08,19,13,40,34.60
2016,08,19,13,41,34.60
2016,08,19,13,42,34.60
2016,08,19,13,43,34.60
2016,08,19,13,44,34.70
2016,08,19,13,45,34.70
2016,08,19,13,46,34.60
2016,08,19,13,47,34.60
2016,08,19,13,48,34.60
2016,08,19,13,49,34.60
2016,08,19,13,50,34.60
2016,08,19,13,51,34.60
2016,08,19,13,52,34.60
2016,08,19,13,53,34.60
2016,08,19,13,54,34.60
2016,08,19,13,55,34.70
2016,08,19,13,56,34.70
2016,08,19,13,57,34.70
2016,08,19,13,58,34.70
2016,08,19,13,59,34.70
2016,08,19,14,00,34.70
2016,08,19,14,01,34.80
2016,08,19,14,02,34.70
2016,08,19,14,03,34.70
2016,08,19,14,04,34.60
2016,08,19,14,05,34.60
2016,08,19,14,06,34.70
2016,08,19,14,07,34.70
2016,08,19,14,08,34.70
2016,08,19,14,09,34.70
2016,08,19,14,10,34.70
2016,08,19,14,11,34.70
2016,08,19,14,12,34.70
2016,08,19,14,13,34.70
2016,08,19,14,14,34.70
2016,08,19,14,15,34.70
2016,08,19,14,16,34.70
2016,08,19,14,17,34.70
2016,08,19,14,18,34.80
2016,08,19,14,19,34.70
2016,08,19,14,20,34.70
2016,08,19,14,21,34.70
2016,08,19,14,22,34.70
2016,08,19,14,23,34.60
2016,08,19,14,24,34.60
2016,08,19,14,25,34.60
2016,08,19,14,26,34.70
2016,08,19,14,27,34.70
2016,08,19,14,28,34.70
2016,08,19,14,29,34.70
2016,08,19,14,30,34.80
2016,08,19,14,31,34.80
2016,08,19,14,32,34.80
2016,08,19,14,33,34.80
2016,08,19,14,34,34.80
2016,08,19,14,35,34.80
2016,08,19,14,36,34.90
2016,08,19,14,37,34.90
2016,08,19,14,38,34.90
2016,08,19,14,39,34.90
2016,08,19,14,40,35.10
2016,08,19,14,41,35.10
2016,08,19,14,42,35.20
2016,08,19,14,43,35.30
2016,08,19,14,44,35.30
2016,08,19,14,45,35.40
2016,08,19,14,46,35.30
2016,08,19,14,47,35.30
2016,08,19,14,48,35.30
2016,08,19,14,49,35.30
2016,08,19,14,50,35.30
2016,08,19,14,51,35.30
2016,08,19,14,52,35.30
2016,08,19,14,53,35.30
2016,08,19,14,54,35.30
2016,08,19,14,55,35.30
2016,08,19,14,56,35.30
2016,08,19,14,57,35.40
2016,08,19,14,58,35.40
2016,08,19,14,59,35.40
2016,08,19,15,00,35.50
2016,08,19,15,01,35.60
2016,08,19,15,02,35.60
2016,08,19,15,03,35.60
2016,08,19,15,04,35.60
2016,08,19,15,05,35.60
2016,08,19,15,06,35.70
2016,08,19,15,07,35.60
2016,08,19,15,08,35.60
2016,08,19,15,09,35.60
2016,08,19,15,10,35.60
2016,08,19,15,11,35.60
2016,08,19,15,12,35.50
2016,08,19,15,13,35.50
2016,08,19,15,14,35.50
2016,08,19,15,15,35.50
2016,08,19,15,16,35.60
2016,08,19,15,17,35.60
2016,08,19,15,18,35.60
2016,08,19,15,19,35.70
2016,08,19,15,20,35.70
2016,08,19,15,21,35.70
2016,08,19,15,22,35.70
2016,08,19,15,23,35.70
2016,08,19,15,24,35.70
2016,08,19,15,25,35.70
2016,08,19,15,26,35.60
2016,08,19,15,27,35.60
2016,08,19,15,28,35.60
2016,08,19,15,29,35.50
2016,08,19,15,30,35.40
2016,08,19,15,31,35.40
2016,08,19,15,32,35.40
2016,08,19,15,33,35.40
2016,08,19,15,34,35.40
2016,08,19,15,35,35.40
2016,08,19,15,36,35.40
2016,08,19,15,37,35.50
2016,08,19,15,38,35.50
2016,08,19,15,39,35.50
2016,08,19,15,40,35.60
2016,08,19,15,41,35.60
2016,08,19,15,42,35.70
2016,08,19,15,43,35.70
2016,08,19,15,44,35.80
2016,08,19,15,45,35.80
2016,08,19,15,46,35.80
2016,08,19,15,47,35.80
2016,08,19,15,48,35.80
2016,08,19,15,49,35.80
2016,08,19,15,50,35.70
2016,08,19,15,51,35.70
2016,08,19,15,52,35.70
2016,08,19,15,53,35.70
2016,08,19,15,54,35.70
2016,08,19,15,55,35.70
2016,08,19,15,56,35.70
2016,08,19,15,57,35.70
2016,08,19,15,58,35.70
2016,08,19,15,59,35.70
2016,08,19,16,00,35.70
2016,08,19,16,01,35.70
2016,08,19,16,02,35.70
2016,08,19,16,03,35.70
2016,08,19,16,04,35.80
2016,08,19,16,05,35.80
2016,08,19,16,06,35.70
2016,08,19,16,07,35.80
2016,08,19,16,08,35.80
2016,08,19,16,09,35.80
2016,08,19,16,10,35.80
2016,08,19,16,11,35.80
2016,08,19,16,12,35.90
2016,08,19,16,13,35.90
2016,08,19,16,14,35.90
2016,08,19,16,15,35.90
2016,08,19,16,16,36.00
2016,08,19,16,17,36.10
2016,08,19,16,18,36.10
2016,08,19,16,19,36.10
2016,08,19,16,20,36.10
2016,08,19,16,21,36.10
2016,08,19,16,22,36.10
2016,08,19,16,23,36.00
2016,08,19,16,24,36.10
2016,08,19,16,25,36.10
2016,08,19,16,26,36.00
2016,08,19,16,27,35.90
2016,08,19,16,28,35.90
2016,08,19,16,29,35.90
2016,08,19,16,30,35.90
2016,08,19,16,31,35.90
2016,08,19,16,32,35.80
2016,08,19,16,33,35.80
2016,08,19,16,34,35.80
2016,08,19,16,35,35.80
2016,08,19,16,36,35.90
2016,08,19,16,37,35.90
2016,08,19,16,38,35.90
2016,08,19,16,39,35.90
2016,08,19,16,40,35.90
2016,08,19,16,41,35.80
2016,08,19,16,42,35.80
2016,08,19,16,43,35.80
2016,08,19,16,44,35.80
2016,08,19,16,45,35.80
2016,08,19,16,46,35.80
2016,08,19,16,47,35.80
2016,08,19,16,48,35.80
2016,08,19,16,49,35.80
2016,08,19,16,50,35.90
2016,08,19,16,51,35.90
2016,08,19,16,52,35.90
2016,08,19,16,53,35.90
2016,08,19,16,54,35.90
2016,08,19,16,55,35.90
2016,08,19,16,56,35.90
2016,08,19,16,57,35.80
2016,08,19,16,58,35.90
2016,08,19,16,59,35.80
2016,08,19,17,00,35.80
2016,08,19,17,01,35.80
2016,08,19,17,02,35.80
2016,08,19,17,03,35.80
2016,08,19,17,04,35.70
2016,08,19,17,05,35.70
2016,08,19,17,06,35.70
2016,08,19,17,07,35.70
2016,08,19,17,08,35.70
2016,08,19,17,09,35.70
2016,08,19,17,10,35.70
2016,08,19,17,11,35.70
2016,08,19,17,12,35.70
2016,08,19,17,13,35.70
2016,08,19,17,14,35.70
2016,08,19,17,15,35.70
2016,08,19,17,16,35.70
2016,08,19,17,17,35.70
2016,08,19,17,18,35.70
2016,08,19,17,19,35.70
2016,08,19,17,20,35.60
2016,08,19,17,21,35.60
2016,08,19,17,22,35.60
2016,08,19,17,23,35.60
2016,08,19,17,24,35.50
2016,08,19,17,25,35.40
2016,08,19,17,26,35.40
2016,08,19,17,27,35.40